TAP16LS LPPT-LPMA

Flight info

Callsign TAP16LS
Flight time N/A
Altitude 37000
Route ULVOT DCT GALPA DCT RAKUN
Aircraft A319/M-SDE3FGHIRWY/LB1

Departure

Time 2026-05-07 11:56
Airport Lisbon Humberto Delgado Airport (LPPT)

Arrival

Time N/A
Airport Cristiano Ronaldo International Airport (LPMA)
Time Latitude Longitude Altitude Speed Heading
2026-05-07 11:24 38.77256 -9.13147 332 ft 0 kts 77°
2026-05-07 11:43 38.77252 -9.13165 332 ft 3 kts 77°
2026-05-07 11:44 38.77248 -9.13188 333 ft 3 kts 77°
2026-05-07 11:44 38.77245 -9.13203 335 ft 3 kts 77°
2026-05-07 11:44 38.77241 -9.13226 337 ft 3 kts 77°
2026-05-07 11:44 38.77240 -9.13236 338 ft 0 kts 77°
2026-05-07 11:45 38.77247 -9.13226 336 ft 3 kts 34°
2026-05-07 11:45 38.77234 -9.13235 333 ft 0 kts 348°
2026-05-07 11:48 38.77248 -9.13238 338 ft 8 kts 349°
2026-05-07 11:48 38.77312 -9.13257 338 ft 8 kts 334°
2026-05-07 11:48 38.77325 -9.13329 340 ft 13 kts 260°
2026-05-07 11:49 38.77301 -9.13473 348 ft 17 kts 258°
2026-05-07 11:49 38.77278 -9.13608 350 ft 14 kts 258°
2026-05-07 11:49 38.77259 -9.13726 356 ft 13 kts 258°
2026-05-07 11:49 38.77238 -9.13834 354 ft 12 kts 239°
2026-05-07 11:50 38.77162 -9.13881 353 ft 12 kts 203°
2026-05-07 11:50 38.77078 -9.13927 355 ft 14 kts 203°
2026-05-07 11:50 38.76981 -9.13980 353 ft 17 kts 202°
2026-05-07 11:50 38.76866 -9.14042 350 ft 19 kts 203°
2026-05-07 11:51 38.76739 -9.14110 345 ft 14 kts 202°
2026-05-07 11:51 38.76663 -9.14150 343 ft 12 kts 202°
2026-05-07 11:51 38.76591 -9.14209 340 ft 12 kts 252°
2026-05-07 11:51 38.76605 -9.14271 337 ft 0 kts 294°
2026-05-07 11:53 38.76607 -9.14278 334 ft 4 kts 294°
2026-05-07 11:53 38.76627 -9.14339 335 ft 10 kts 291°
2026-05-07 11:53 38.76672 -9.14373 334 ft 0 kts 20°
2026-05-07 11:55 38.76673 -9.14373 334 ft 1 kts 20°
2026-05-07 11:55 38.76774 -9.14319 339 ft 44 kts 23°
2026-05-07 11:55 38.77295 -9.14039 362 ft 113 kts 22°
2026-05-07 11:55 38.78196 -9.13560 370 ft 166 kts 23°
2026-05-07 11:56 38.79291 -9.12958 857 ft 170 kts 20°
2026-05-07 11:56 38.80379 -9.12373 1503 ft 170 kts 19°
2026-05-07 11:56 38.81525 -9.11735 1925 ft 191 kts 25°
2026-05-07 11:56 38.82747 -9.10826 2307 ft 214 kts 29°
2026-05-07 11:57 38.84084 -9.09797 2787 ft 234 kts 29°
2026-05-07 11:57 38.85515 -9.08686 3004 ft 251 kts 30°
2026-05-07 11:57 38.86927 -9.07250 3006 ft 264 kts 49°
2026-05-07 11:57 38.87799 -9.05185 3010 ft 267 kts 74°
2026-05-07 11:58 38.87951 -9.02822 3073 ft 270 kts 99°
2026-05-07 11:58 38.87311 -9.00553 3959 ft 271 kts 121°
2026-05-07 11:58 38.86252 -8.98585 5125 ft 267 kts 136°
2026-05-07 11:58 38.84735 -8.97252 6195 ft 266 kts 159°
2026-05-07 11:59 38.82929 -8.96831 7154 ft 267 kts 182°
2026-05-07 11:59 38.81138 -8.97375 8034 ft 271 kts 202°
2026-05-07 11:59 38.79373 -8.98339 8938 ft 275 kts 203°
2026-05-07 11:59 38.77592 -8.99308 9835 ft 280 kts 203°
2026-05-07 12:00 38.75761 -9.00300 10336 ft 297 kts 203°
2026-05-07 12:00 38.73780 -9.01366 10645 ft 319 kts 203°
2026-05-07 12:00 38.71694 -9.02486 11253 ft 329 kts 203°
2026-05-07 12:00 38.69559 -9.03630 11968 ft 335 kts 204°
2026-05-07 12:01 38.67392 -9.04790 12739 ft 340 kts 204°
2026-05-07 12:01 38.65193 -9.05963 13498 ft 345 kts 204°
2026-05-07 12:01 38.62963 -9.07149 14169 ft 350 kts 204°
2026-05-07 12:01 38.60697 -9.08356 14809 ft 354 kts 204°
2026-05-07 12:02 38.58411 -9.09573 15476 ft 358 kts 205°
2026-05-07 12:02 38.56099 -9.10806 16144 ft 362 kts 205°
2026-05-07 12:02 38.53768 -9.12049 16798 ft 365 kts 205°
2026-05-07 12:02 38.51408 -9.13309 17447 ft 369 kts 205°
2026-05-07 12:03 38.49025 -9.14579 18117 ft 373 kts 206°
2026-05-07 12:03 38.46628 -9.15854 18702 ft 376 kts 206°
2026-05-07 12:03 38.44203 -9.17143 19291 ft 379 kts 206°
2026-05-07 12:03 38.41855 -9.18623 20210 ft 366 kts 215°
2026-05-07 12:04 38.39818 -9.20454 20993 ft 361 kts 221°
2026-05-07 12:04 38.37793 -9.22424 21652 ft 362 kts 221°
2026-05-07 12:04 38.35815 -9.24360 22247 ft 364 kts 221°
2026-05-07 12:04 38.33760 -9.26375 22576 ft 375 kts 221°
2026-05-07 12:05 38.31657 -9.28440 22829 ft 386 kts 221°
2026-05-07 12:05 38.29511 -9.30536 23297 ft 390 kts 221°
2026-05-07 12:05 38.27347 -9.32640 23766 ft 393 kts 221°
2026-05-07 12:05 38.25178 -9.34744 24249 ft 394 kts 221°
2026-05-07 12:06 38.22991 -9.36862 24688 ft 395 kts 221°
2026-05-07 12:06 38.20797 -9.38988 25132 ft 397 kts 221°
2026-05-07 12:06 38.18598 -9.41120 25556 ft 399 kts 221°
2026-05-07 12:06 38.16388 -9.43262 25974 ft 401 kts 222°
2026-05-07 12:07 38.14163 -9.45419 26371 ft 403 kts 222°
2026-05-07 12:07 38.11933 -9.47581 26809 ft 404 kts 222°
2026-05-07 12:07 38.09683 -9.49755 27253 ft 406 kts 222°
2026-05-07 12:07 38.07436 -9.51920 27660 ft 408 kts 222°
2026-05-07 12:08 38.05162 -9.54109 28067 ft 410 kts 222°
2026-05-07 12:08 38.02888 -9.56298 28462 ft 412 kts 222°
2026-05-07 12:08 38.00602 -9.58499 28852 ft 414 kts 222°
2026-05-07 12:08 37.98326 -9.60747 29211 ft 415 kts 224°
2026-05-07 12:09 37.96097 -9.63080 29572 ft 416 kts 225°
2026-05-07 12:09 37.93895 -9.65466 29928 ft 418 kts 226°
2026-05-07 12:09 37.91692 -9.67878 30239 ft 420 kts 226°
2026-05-07 12:09 37.89473 -9.70300 30554 ft 421 kts 226°
2026-05-07 12:10 37.87242 -9.72711 30874 ft 422 kts 226°
2026-05-07 12:10 37.84989 -9.75122 31193 ft 423 kts 226°
2026-05-07 12:10 37.82738 -9.77509 31514 ft 424 kts 225°
2026-05-07 12:10 37.80474 -9.79897 31967 ft 421 kts 226°
2026-05-07 12:11 37.78235 -9.82252 32437 ft 418 kts 226°
2026-05-07 12:11 37.76009 -9.84598 32926 ft 414 kts 226°
2026-05-07 12:11 37.73812 -9.86920 33475 ft 409 kts 226°
2026-05-07 12:11 37.71648 -9.89213 33970 ft 406 kts 226°
2026-05-07 12:12 37.69493 -9.91496 34379 ft 403 kts 226°
2026-05-07 12:12 37.67345 -9.93771 34742 ft 402 kts 226°
2026-05-07 12:12 37.65204 -9.96038 35081 ft 401 kts 226°
2026-05-07 12:12 37.63087 -9.98307 35399 ft 398 kts 229°
2026-05-07 12:13 37.61226 -10.00855 35695 ft 392 kts 237°
2026-05-07 12:13 37.59511 -10.03580 35991 ft 391 kts 236°
2026-05-07 12:13 37.57817 -10.06259 36279 ft 391 kts 236°
2026-05-07 12:13 37.56120 -10.08931 36564 ft 390 kts 236°
2026-05-07 12:14 37.54422 -10.11602 36839 ft 390 kts 236°
2026-05-07 12:14 37.52724 -10.14268 36960 ft 390 kts 236°
2026-05-07 12:14 37.51029 -10.16923 36957 ft 390 kts 236°
2026-05-07 12:15 37.48205 -10.21343 36977 ft 388 kts 236°
2026-05-07 12:15 37.44258 -10.27514 36980 ft 387 kts 236°
2026-05-07 12:16 37.41462 -10.31895 36992 ft 387 kts 236°
2026-05-07 12:16 37.38093 -10.37174 36986 ft 387 kts 236°
2026-05-07 12:17 37.34712 -10.42437 36984 ft 387 kts 236°
2026-05-07 12:17 37.31327 -10.47702 36986 ft 387 kts 236°
2026-05-07 12:18 37.27952 -10.52956 36995 ft 387 kts 236°
2026-05-07 12:18 37.24541 -10.58247 36995 ft 386 kts 235°
2026-05-07 12:19 37.21194 -10.63427 36984 ft 384 kts 235°
2026-05-07 12:19 37.17813 -10.68655 36990 ft 384 kts 235°
2026-05-07 12:20 37.15731 -10.71867 36992 ft 384 kts 235°
2026-05-07 12:21 37.14016 -10.74505 36987 ft 384 kts 235°
2026-05-07 12:21 37.10648 -10.79694 36995 ft 384 kts 235°
2026-05-07 12:22 37.07279 -10.84880 36987 ft 383 kts 235°
2026-05-07 12:22 37.03909 -10.90063 37001 ft 383 kts 235°
2026-05-07 12:23 37.00539 -10.95237 37001 ft 383 kts 235°
2026-05-07 12:23 36.97181 -11.00388 36991 ft 382 kts 235°
2026-05-07 12:24 36.93811 -11.05537 36993 ft 382 kts 235°
2026-05-07 12:24 36.90460 -11.10660 36995 ft 381 kts 235°